Regional Weather Roundup
Issued by NWS Columbia, SC

Home | Current Version | Previous Version | Text Only | Print | Product List | Glossary On
Versions: 1 2 3 4 5 6 7 8 9 10 11 12 13 14 15 16 17 18 19 20 21 22 23 24 25 26 27 28 29 30 31 32 33 34 35 36 37 38 39 40 41 42 43 44 45 46 47 48 49 50
000
ASUS42 KCAE 221010
RWRCAE
REGIONAL WEATHER ROUNDUP
NATIONAL WEATHER SERVICE COLUMBIA SC
600 AM EDT SUN OCT 22 2017

NOTE: "FAIR" INDICATES FEW OR NO CLOUDS BELOW 12,000 FEET WITH NO
SIGNIFICANT WEATHER AND/OR OBSTRUCTIONS TO VISIBILITY.

NOT ALL STATIONS ARE QUALITY CONTROLLED BY THE NATIONAL
WEATHER SERVICE. USE DATA WITH CAUTION...ESPECIALLY
DEWPOINT OBSERVATIONS.

SCZ001>056-GAZ040-063>065-077-221100-
...UPSTATE SOUTH CAROLINA...

CITY           SKY/WX    TMP DP  RH WIND       PRES   REMARKS
ANDERSON       CLOUDY    57  53  86 NE5       30.29S
LIBERTY        CLOUDY    47  47 100 NE3       30.29F
SPARTANBURG    PTCLDY    52  50  93 CALM      30.31R
CLEMSON        PTCLDY    57  55  93 CALM      30.30S
GREENVILLE     CLOUDY    60  51  72 NE7       30.31S
GREENWOOD      PTCLDY    52  52 100 CALM      30.31R
GREER          PTCLDY    54  52  93 NE3       30.31S
ROCK HILL      CLEAR     50  50 100 CALM      30.32R FOG
CHESTER        SUNNY     54  52  94 NE3       30.32S
LAURENS        SUNNY     50  48  93 N5        30.30S


...CENTRAL SOUTH CAROLINA...

CITY           SKY/WX    TMP DP  RH WIND       PRES   REMARKS
COLUMBIA APT   PTCLDY    55  54  96 CALM      30.28S
COLUMBIA OWENS CLEAR     60  58  92 CALM      30.30R
MCENTIRE ANGB  CLOUDY    60  60 100 NE3       30.29R
ORANGEBURG     CLOUDY    62  61  96 NE5       30.28R
SUMTER SHAW    PTCLDY    60  58  94 NE6       30.27R
NEWBERRY       MOSUNNY   54  52  94 NE5       30.32S
AIKEN          FAIR      55  55 100 NE6       30.31R
BARNWELL         N/A     64  64 100 CALM      30.27R
MANNING        FAIR      61  59  94 MISG      30.28R
CAMDEN         FAIR      54  50  87 CALM      30.31R
LANCASTER      SUNNY     52  52 100 CALM      30.32R FOG
WINNSBORO      SUNNY     57  55  94 E6        30.29S


...EASTERN AND COASTAL SOUTH CAROLINA...

CITY           SKY/WX    TMP DP  RH WIND       PRES   REMARKS
MYRTLE BEACH   CLOUDY    66  64  93 NE7       30.29S
N MYRTLE BCH   PTCLDY    63  62  97 NE5       30.28S
MARION         FAIR      57  55  94 NE5       30.29F FOG
HARTSVILLE     FAIR      59  57  94 CALM      30.30R FOG
FLORENCE       MOCLDY    58  58 100 NE5       30.30S
DARLINGTON     PTCLDY    54  53  97 CALM      30.31S FOG
CHARLESTON APT PTCLDY    67  66  97 NE8       30.25R
MOUNT PLEASANT FAIR      66  64  94 CALM      30.25S
WALTERBORO     MOSUNNY   64  63  94 NE7       30.26S
BEAUFORT       CLEAR     68  66  93 MISG      30.23R


...EASTERN GEORGIA...

CITY           SKY/WX    TMP DP  RH WIND       PRES   REMARKS
AUGUSTA BUSH F PTCLDY    58  56  93 CALM      30.26R
AUGUSTA DANIEL PTCLDY    66  62  87 NE6       30.27R
THOMSON        CLEAR     55  53  92 CALM      30.31S
WASHINGTON     FAIR      55  54  94 CALM      30.27S
CLAXTON        FAIR      67  66  96 N3        30.22R
SYLVANIA       MOSUNNY   64  64 100 E3        30.25R
STATESBORO     CLEAR     65  64  94 CALM      30.24R
SAVANNAH       PTCLDY    68  67  96 NE8       30.22R


...SOUTHERN NORTH CAROLINA...

CITY           SKY/WX    TMP DP  RH WIND       PRES   REMARKS
CHARLOTTE      PTCLDY    50  50 100 CALM      30.32S
MONROE         CLEAR     51  51 100 NE5       30.32R FOG
WADESBORO      CLOUDY    48  46  93 CALM      30.32R
RUTHERFORDTON  PTCLDY    49  49 100 CALM      30.33S
ASHEVILLE      CLEAR     45  44  97 CALM      30.35S

$$



USA.gov is the U.S. government's official web portal to all federal, state and local government web resources and services.